Track COSMOS 1627 now! 10-day predictions COSMOS 1627 is classified as:
1 15505U 85011A 21060.91746262 .00000024 00000-0 93393-5 0 9995 2 15505 82.9207 42.3903 0041575 336.1360 80.8201 13.74370160809650